Tracking 17154 objects as of 3-August-2015
HD Live streaming from Space Station

SKYNET 5B

Track SKYNET 5B now!
SKYNET 5B is classified as:


NORAD ID: 32294
Int'l Code: 2007-056B
Perigee: 35,778.1 km
Apogee: 35,807.3 km
Inclination: 0.1 °
Period: 1,436.0 minutes
Semi major axis: 42163 km
RCS: 14.1589 m2 (large)
Launch date: November 14, 2007
Source: United Kingdom (UK)

Star One C1 is a C-, Ku-, and X-band telecommunications, multimedia and broadband internet satellite that will serve South America
Your satellite tracking list
Your tracking list is empty





NASA's NSSDC Master Catalog

Two Line Element Set (TLE):
1 32294U 07056B   15212.81767615  .00000126  00000-0  00000+0 0  9998
2 32294 000.0671 004.2644 0003469 112.9422 150.6392 01.00275429 28375

Source of the keplerian elements: AFSPC

N2YO: 316